owner,sensor,date,latitude,longitude,vertical_datum,sea_water_practical_salinity,qcFlag 
DISL,ioos:station:DISL:CATA:1,2014-12-01T00:00:00Z,30.3085,-88.1395,2.331,15.77,1111122 
DISL,ioos:station:DISL:CATA:1,2014-12-01T00:30:00Z,30.3085,-88.1395,2.354,15.96,1111122 
DISL,ioos:station:DISL:CATA:1,2014-12-01T01:00:00Z,30.3085,-88.1395,2.372,16.03,1111122 
DISL,ioos:station:DISL:CATA:1,2014-12-01T01:30:00Z,30.3085,-88.1395,2.374,16.29,1111122 
DISL,ioos:station:DISL:CATA:1,2014-12-01T02:00:00Z,30.3085,-88.1395,2.388,16.62,1111122 
DISL,ioos:station:DISL:CATA:1,2014-12-01T02:30:00Z,30.3085,-88.1395,2.389,16.83,1111122 
DISL,ioos:station:DISL:CATA:1,2014-12-01T03:00:00Z,30.3085,-88.1395,2.388,16.78,1111122 
DISL,ioos:station:DISL:CATA:1,2014-12-01T03:30:00Z,30.3085,-88.1395,2.378,17.88,1111122 
DISL,ioos:station:DISL:CATA:1,2014-12-01T04:00:00Z,30.3085,-88.1395,2.355,19.59,1111122 
DISL,ioos:station:DISL:CATA:1,2014-12-01T04:30:00Z,30.3085,-88.1395,2.331,20.49,1111122 
DISL,ioos:station:DISL:CATA:1,2014-12-01T05:00:00Z,30.3085,-88.1395,2.303,20.42,1111122 
DISL,ioos:station:DISL:CATA:1,2014-12-01T05:30:00Z,30.3085,-88.1395,2.28,18.77,1111122 
DISL,ioos:station:DISL:CATA:1,2014-12-01T06:00:00Z,30.3085,-88.1395,2.265,15.59,1111122 
DISL,ioos:station:DISL:CATA:1,2014-12-01T06:30:00Z,30.3085,-88.1395,2.238,15.4,1111122 
DISL,ioos:station:DISL:CATA:1,2014-12-01T07:00:00Z,30.3085,-88.1395,2.229,15.06,1111122 
DISL,ioos:station:DISL:CATA:1,2014-12-01T07:30:00Z,30.3085,-88.1395,2.211,14.67,1111122 
DISL,ioos:station:DISL:CATA:1,2014-12-01T08:00:00Z,30.3085,-88.1395,2.202,14.68,1111122 
DISL,ioos:station:DISL:CATA:1,2014-12-01T08:30:00Z,30.3085,-88.1395,2.197,14.58,1111122 
DISL,ioos:station:DISL:CATA:1,2014-12-01T09:00:00Z,30.3085,-88.1395,2.192,14.51,1111122 
DISL,ioos:station:DISL:CATA:1,2014-12-01T09:30:00Z,30.3085,-88.1395,2.194,14.46,1111122 
DISL,ioos:station:DISL:CATA:1,2014-12-01T10:00:00Z,30.3085,-88.1395,2.18,14.25,1111122 
DISL,ioos:station:DISL:CATA:1,2014-12-01T10:30:00Z,30.3085,-88.1395,2.169,14.04,1111122 
DISL,ioos:station:DISL:CATA:1,2014-12-01T11:00:00Z,30.3085,-88.1395,2.156,13.92,1111122 
DISL,ioos:station:DISL:CATA:1,2014-12-01T11:30:00Z,30.3085,-88.1395,2.146,13.89,1111122 
DISL,ioos:station:DISL:CATA:1,2014-12-01T12:00:00Z,30.3085,-88.1395,2.14,13.68,1111122 
DISL,ioos:station:DISL:CATA:1,2014-12-01T12:30:00Z,30.3085,-88.1395,2.145,13.64,1111122 
DISL,ioos:station:DISL:CATA:1,2014-12-01T13:00:00Z,30.3085,-88.1395,2.152,13.74,1111122 
DISL,ioos:station:DISL:CATA:1,2014-12-01T13:30:00Z,30.3085,-88.1395,2.169,13.64,1111122 
DISL,ioos:station:DISL:CATA:1,2014-12-01T14:00:00Z,30.3085,-88.1395,2.174,13.71,1111122 
DISL,ioos:station:DISL:CATA:1,2014-12-01T14:30:00Z,30.3085,-88.1395,2.173,13.64,1111122 
DISL,ioos:station:DISL:CATA:1,2014-12-01T15:00:00Z,30.3085,-88.1395,2.178,13.76,1111122 
DISL,ioos:station:DISL:CATA:1,2014-12-01T15:30:00Z,30.3085,-88.1395,2.176,13.78,1111122 
DISL,ioos:station:DISL:CATA:1,2014-12-01T16:00:00Z,30.3085,-88.1395,2.163,13.89,1111122 
DISL,ioos:station:DISL:CATA:1,2014-12-01T16:30:00Z,30.3085,-88.1395,2.151,14.18,1111122 
DISL,ioos:station:DISL:CATA:1,2014-12-01T17:00:00Z,30.3085,-88.1395,2.148,14.73,1111122 
DISL,ioos:station:DISL:CATA:1,2014-12-01T17:30:00Z,30.3085,-88.1395,2.15,14.57,1111122 
DISL,ioos:station:DISL:CATA:1,2014-12-01T18:00:00Z,30.3085,-88.1395,2.16,14.69,1111122 
DISL,ioos:station:DISL:CATA:1,2014-12-01T18:30:00Z,30.3085,-88.1395,2.167,14.59,1111122 
DISL,ioos:station:DISL:CATA:1,2014-12-01T19:00:00Z,30.3085,-88.1395,2.168,14.45,1111122 
DISL,ioos:station:DISL:CATA:1,2014-12-01T19:30:00Z,30.3085,-88.1395,2.18,14.97,1111122 
DISL,ioos:station:DISL:CATA:1,2014-12-01T20:00:00Z,30.3085,-88.1395,2.198,15.57,1111122 
DISL,ioos:station:DISL:CATA:1,2014-12-01T20:30:00Z,30.3085,-88.1395,2.215,16.04,1111122 
DISL,ioos:station:DISL:CATA:1,2014-12-01T21:00:00Z,30.3085,-88.1395,2.23,16.25,1111122 
DISL,ioos:station:DISL:CATA:1,2014-12-01T21:30:00Z,30.3085,-88.1395,2.231,17.24,1111122 
DISL,ioos:station:DISL:CATA:1,2014-12-01T22:00:00Z,30.3085,-88.1395,2.268,17.26,1111122 
DISL,ioos:station:DISL:CATA:1,2014-12-01T22:30:00Z,30.3085,-88.1395,2.274,16.44,1111122 
DISL,ioos:station:DISL:CATA:1,2014-12-01T23:00:00Z,30.3085,-88.1395,2.285,15.46,1111122 
DISL,ioos:station:DISL:CATA:1,2014-12-01T23:30:00Z,30.3085,-88.1395,2.297,15.74,1111122 
DISL,ioos:station:DISL:CATA:1,2014-12-02T00:00:00Z,30.3085,-88.1395,2.304,15.29,1111122 
DISL,ioos:station:DISL:CATA:1,2014-12-02T00:30:00Z,30.3085,-88.1395,2.314,17.02,1111122 
DISL,ioos:station:DISL:CATA:1,2014-12-02T01:00:00Z,30.3085,-88.1395,2.318,18.29,1111122 
DISL,ioos:station:DISL:CATA:1,2014-12-02T01:30:00Z,30.3085,-88.1395,2.335,19.33,1111122 
DISL,ioos:station:DISL:CATA:1,2014-12-02T02:00:00Z,30.3085,-88.1395,2.35,19.99,1111122 
DISL,ioos:station:DISL:CATA:1,2014-12-02T02:30:00Z,30.3085,-88.1395,2.357,20.79,1111122 
DISL,ioos:station:DISL:CATA:1,2014-12-02T03:00:00Z,30.3085,-88.1395,2.352,21.03,1111122 
DISL,ioos:station:DISL:CATA:1,2014-12-02T03:30:00Z,30.3085,-88.1395,2.34,21.23,1111122 
DISL,ioos:station:DISL:CATA:1,2014-12-02T04:00:00Z,30.3085,-88.1395,2.324,21.77,1111122 
DISL,ioos:station:DISL:CATA:1,2014-12-02T04:30:00Z,30.3085,-88.1395,2.321,22.33,1111122 
DISL,ioos:station:DISL:CATA:1,2014-12-02T05:00:00Z,30.3085,-88.1395,2.292,22.15,1111122 
DISL,ioos:station:DISL:CATA:1,2014-12-02T05:30:00Z,30.3085,-88.1395,2.262,22.66,1111122 
DISL,ioos:station:DISL:CATA:1,2014-12-02T06:00:00Z,30.3085,-88.1395,2.234,22.15,1111122 
DISL,ioos:station:DISL:CATA:1,2014-12-02T06:30:00Z,30.3085,-88.1395,2.21,19.8,1111122 
DISL,ioos:station:DISL:CATA:1,2014-12-02T07:00:00Z,30.3085,-88.1395,2.196,18.02,1111122 
DISL,ioos:station:DISL:CATA:1,2014-12-02T07:30:00Z,30.3085,-88.1395,2.175,17.8,1111122 
DISL,ioos:station:DISL:CATA:1,2014-12-02T08:00:00Z,30.3085,-88.1395,2.16,18.01,1111122 
DISL,ioos:station:DISL:CATA:1,2014-12-02T08:30:00Z,30.3085,-88.1395,2.159,17.89,1111122 
DISL,ioos:station:DISL:CATA:1,2014-12-02T09:00:00Z,30.3085,-88.1395,2.147,17.78,1111122 
DISL,ioos:station:DISL:CATA:1,2014-12-02T09:30:00Z,30.3085,-88.1395,2.142,17.67,1111122 
DISL,ioos:station:DISL:CATA:1,2014-12-02T10:00:00Z,30.3085,-88.1395,2.14,16.51,1111122 
DISL,ioos:station:DISL:CATA:1,2014-12-02T10:30:00Z,30.3085,-88.1395,2.149,15.63,1111122 
DISL,ioos:station:DISL:CATA:1,2014-12-02T11:00:00Z,30.3085,-88.1395,2.166,15.52,1111122 
DISL,ioos:station:DISL:CATA:1,2014-12-02T11:30:00Z,30.3085,-88.1395,2.161,15.14,1111122 
DISL,ioos:station:DISL:CATA:1,2014-12-02T12:00:00Z,30.3085,-88.1395,2.136,16.4,1111122 
DISL,ioos:station:DISL:CATA:1,2014-12-02T12:30:00Z,30.3085,-88.1395,2.127,17.97,1111122 
DISL,ioos:station:DISL:CATA:1,2014-12-02T13:00:00Z,30.3085,-88.1395,2.141,19.85,1111122 
DISL,ioos:station:DISL:CATA:1,2014-12-02T13:30:00Z,30.3085,-88.1395,2.179,16.15,1111122 
DISL,ioos:station:DISL:CATA:1,2014-12-02T14:00:00Z,30.3085,-88.1395,2.188,16.67,1111122 
DISL,ioos:station:DISL:CATA:1,2014-12-02T14:30:00Z,30.3085,-88.1395,2.208,16.13,1111122 
DISL,ioos:station:DISL:CATA:1,2014-12-02T15:00:00Z,30.3085,-88.1395,2.228,15.19,1111122 
DISL,ioos:station:DISL:CATA:1,2014-12-02T15:30:00Z,30.3085,-88.1395,2.242,14.72,1111122 
DISL,ioos:station:DISL:CATA:1,2014-12-02T16:00:00Z,30.3085,-88.1395,2.247,14.53,1111122 
DISL,ioos:station:DISL:CATA:1,2014-12-02T16:30:00Z,30.3085,-88.1395,2.253,18.43,1111122 
DISL,ioos:station:DISL:CATA:1,2014-12-02T17:00:00Z,30.3085,-88.1395,2.256,20.16,1111122 
DISL,ioos:station:DISL:CATA:1,2014-12-02T17:30:00Z,30.3085,-88.1395,2.256,22.82,1111122 
DISL,ioos:station:DISL:CATA:1,2014-12-02T18:00:00Z,30.3085,-88.1395,2.257,24.02,1111122 
DISL,ioos:station:DISL:CATA:1,2014-12-02T18:30:00Z,30.3085,-88.1395,2.272,24.11,1111122 
DISL,ioos:station:DISL:CATA:1,2014-12-02T19:00:00Z,30.3085,-88.1395,2.29,25.45,1111122 
DISL,ioos:station:DISL:CATA:1,2014-12-02T19:30:00Z,30.3085,-88.1395,2.313,25.88,1111122 
DISL,ioos:station:DISL:CATA:1,2014-12-02T20:00:00Z,30.3085,-88.1395,2.335,26.07,1111122 
DISL,ioos:station:DISL:CATA:1,2014-12-02T20:30:00Z,30.3085,-88.1395,2.37,25.91,1111122 
DISL,ioos:station:DISL:CATA:1,2014-12-02T21:00:00Z,30.3085,-88.1395,2.385,24.23,1111122 
DISL,ioos:station:DISL:CATA:1,2014-12-02T21:30:00Z,30.3085,-88.1395,2.391,23.54,1111122 
DISL,ioos:station:DISL:CATA:1,2014-12-02T22:00:00Z,30.3085,-88.1395,2.413,24.19,1111122 
DISL,ioos:station:DISL:CATA:1,2014-12-02T22:30:00Z,30.3085,-88.1395,2.432,23.79,1111122 
DISL,ioos:station:DISL:CATA:1,2014-12-02T23:00:00Z,30.3085,-88.1395,2.447,23.3,1111122 
DISL,ioos:station:DISL:CATA:1,2014-12-02T23:30:00Z,30.3085,-88.1395,2.454,23.91,1111122 
DISL,ioos:station:DISL:CATA:1,2014-12-03T00:00:00Z,30.3085,-88.1395,2.471,23.0,1111122 
DISL,ioos:station:DISL:CATA:1,2014-12-03T00:30:00Z,30.3085,-88.1395,2.48,22.02,1111122 
DISL,ioos:station:DISL:CATA:1,2014-12-03T01:00:00Z,30.3085,-88.1395,2.48,22.97,1111122 
DISL,ioos:station:DISL:CATA:1,2014-12-03T01:30:00Z,30.3085,-88.1395,2.487,24.21,1111122 
DISL,ioos:station:DISL:CATA:1,2014-12-03T02:00:00Z,30.3085,-88.1395,2.488,25.25,1111122 
DISL,ioos:station:DISL:CATA:1,2014-12-03T02:30:00Z,30.3085,-88.1395,2.488,25.46,1111122 
DISL,ioos:station:DISL:CATA:1,2014-12-03T03:00:00Z,30.3085,-88.1395,2.493,25.64,1111122 
DISL,ioos:station:DISL:CATA:1,2014-12-03T03:30:00Z,30.3085,-88.1395,2.475,25.9,1111122 
DISL,ioos:station:DISL:CATA:1,2014-12-03T04:00:00Z,30.3085,-88.1395,2.463,26.06,1111122 
DISL,ioos:station:DISL:CATA:1,2014-12-03T04:30:00Z,30.3085,-88.1395,2.431,26.36,1111122 
DISL,ioos:station:DISL:CATA:1,2014-12-03T05:00:00Z,30.3085,-88.1395,2.395,26.6,1111122 
DISL,ioos:station:DISL:CATA:1,2014-12-03T05:30:00Z,30.3085,-88.1395,2.357,26.71,1111122 
DISL,ioos:station:DISL:CATA:1,2014-12-03T06:00:00Z,30.3085,-88.1395,2.316,26.57,1111122 
DISL,ioos:station:DISL:CATA:1,2014-12-03T06:30:00Z,30.3085,-88.1395,2.269,21.32,1111122 
DISL,ioos:station:DISL:CATA:1,2014-12-03T07:00:00Z,30.3085,-88.1395,2.232,12.78,1111122 
DISL,ioos:station:DISL:CATA:1,2014-12-03T07:30:00Z,30.3085,-88.1395,2.189,11.89,1111122 
DISL,ioos:station:DISL:CATA:1,2014-12-03T08:00:00Z,30.3085,-88.1395,2.166,12.81,1111122 
DISL,ioos:station:DISL:CATA:1,2014-12-03T08:30:00Z,30.3085,-88.1395,2.131,12.3,1111122 
DISL,ioos:station:DISL:CATA:1,2014-12-03T09:00:00Z,30.3085,-88.1395,2.105,12.27,1111122 
DISL,ioos:station:DISL:CATA:1,2014-12-03T09:30:00Z,30.3085,-88.1395,2.08,12.3,1111122 
DISL,ioos:station:DISL:CATA:1,2014-12-03T10:00:00Z,30.3085,-88.1395,2.063,12.36,1111122 
DISL,ioos:station:DISL:CATA:1,2014-12-03T10:30:00Z,30.3085,-88.1395,2.045,12.3,1111122 
DISL,ioos:station:DISL:CATA:1,2014-12-03T11:00:00Z,30.3085,-88.1395,2.046,11.91,1111122 
DISL,ioos:station:DISL:CATA:1,2014-12-03T11:30:00Z,30.3085,-88.1395,2.048,12.07,1111122 
DISL,ioos:station:DISL:CATA:1,2014-12-03T12:00:00Z,30.3085,-88.1395,2.049,12.31,1111122 
DISL,ioos:station:DISL:CATA:1,2014-12-03T12:30:00Z,30.3085,-88.1395,2.05,12.41,1111122 
DISL,ioos:station:DISL:CATA:1,2014-12-03T13:00:00Z,30.3085,-88.1395,2.042,12.33,1111122 
DISL,ioos:station:DISL:CATA:1,2014-12-03T13:30:00Z,30.3085,-88.1395,2.048,12.34,1111122 
DISL,ioos:station:DISL:CATA:1,2014-12-03T14:00:00Z,30.3085,-88.1395,2.051,12.38,1111122 
DISL,ioos:station:DISL:CATA:1,2014-12-03T14:30:00Z,30.3085,-88.1395,2.073,12.31,1111122 
DISL,ioos:station:DISL:CATA:1,2014-12-03T15:00:00Z,30.3085,-88.1395,2.094,12.24,1111122 
DISL,ioos:station:DISL:CATA:1,2014-12-03T15:30:00Z,30.3085,-88.1395,2.122,12.26,1111122 
DISL,ioos:station:DISL:CATA:1,2014-12-03T16:00:00Z,30.3085,-88.1395,2.148,12.22,1111122 
DISL,ioos:station:DISL:CATA:1,2014-12-03T16:30:00Z,30.3085,-88.1395,2.165,12.12,1111122 
DISL,ioos:station:DISL:CATA:1,2014-12-03T17:00:00Z,30.3085,-88.1395,2.182,12.21,1111122 
DISL,ioos:station:DISL:CATA:1,2014-12-03T17:30:00Z,30.3085,-88.1395,2.194,12.31,1111122 
DISL,ioos:station:DISL:CATA:1,2014-12-03T18:00:00Z,30.3085,-88.1395,2.213,12.26,1111122 
DISL,ioos:station:DISL:CATA:1,2014-12-03T18:30:00Z,30.3085,-88.1395,2.236,12.24,1111122 
DISL,ioos:station:DISL:CATA:1,2014-12-03T19:00:00Z,30.3085,-88.1395,2.247,15.58,1111122 
DISL,ioos:station:DISL:CATA:1,2014-12-03T19:30:00Z,30.3085,-88.1395,2.27,16.07,1111122 
DISL,ioos:station:DISL:CATA:1,2014-12-03T20:00:00Z,30.3085,-88.1395,2.296,16.78,1111122 
DISL,ioos:station:DISL:CATA:1,2014-12-03T20:30:00Z,30.3085,-88.1395,2.319,17.87,1111122 
DISL,ioos:station:DISL:CATA:1,2014-12-03T21:00:00Z,30.3085,-88.1395,2.348,18.12,1111122 
DISL,ioos:station:DISL:CATA:1,2014-12-03T21:30:00Z,30.3085,-88.1395,2.379,17.52,1111122 
DISL,ioos:station:DISL:CATA:1,2014-12-03T22:00:00Z,30.3085,-88.1395,2.408,19.14,1111122 
DISL,ioos:station:DISL:CATA:1,2014-12-03T22:30:00Z,30.3085,-88.1395,2.435,19.89,1111122 
DISL,ioos:station:DISL:CATA:1,2014-12-03T23:00:00Z,30.3085,-88.1395,2.461,19.78,1111122 
DISL,ioos:station:DISL:CATA:1,2014-12-03T23:30:00Z,30.3085,-88.1395,2.479,19.86,1111122 
DISL,ioos:station:DISL:CATA:1,2014-12-04T00:00:00Z,30.3085,-88.1395,2.495,19.92,1111122 
DISL,ioos:station:DISL:CATA:1,2014-12-04T00:30:00Z,30.3085,-88.1395,2.507,20.67,1111122 
DISL,ioos:station:DISL:CATA:1,2014-12-04T01:00:00Z,30.3085,-88.1395,2.509,21.93,1111122 
DISL,ioos:station:DISL:CATA:1,2014-12-04T01:30:00Z,30.3085,-88.1395,2.517,23.51,1111122 
DISL,ioos:station:DISL:CATA:1,2014-12-04T02:00:00Z,30.3085,-88.1395,2.526,24.26,1111122 
DISL,ioos:station:DISL:CATA:1,2014-12-04T02:30:00Z,30.3085,-88.1395,2.539,25.17,1111122 
DISL,ioos:station:DISL:CATA:1,2014-12-04T03:00:00Z,30.3085,-88.1395,2.535,25.34,1111122 
DISL,ioos:station:DISL:CATA:1,2014-12-04T03:30:00Z,30.3085,-88.1395,2.524,25.83,1111122 
DISL,ioos:station:DISL:CATA:1,2014-12-04T04:00:00Z,30.3085,-88.1395,2.516,26.96,1111122 
DISL,ioos:station:DISL:CATA:1,2014-12-04T04:30:00Z,30.3085,-88.1395,2.494,27.47,1111122 
DISL,ioos:station:DISL:CATA:1,2014-12-04T05:00:00Z,30.3085,-88.1395,2.465,27.82,1111122 
DISL,ioos:station:DISL:CATA:1,2014-12-04T05:30:00Z,30.3085,-88.1395,2.429,28.1,1111122 
DISL,ioos:station:DISL:CATA:1,2014-12-04T06:00:00Z,30.3085,-88.1395,2.393,28.33,1111122 
DISL,ioos:station:DISL:CATA:1,2014-12-04T06:30:00Z,30.3085,-88.1395,2.345,28.36,1111122 
DISL,ioos:station:DISL:CATA:1,2014-12-04T07:00:00Z,30.3085,-88.1395,2.3,20.79,1111122 
DISL,ioos:station:DISL:CATA:1,2014-12-04T07:30:00Z,30.3085,-88.1395,2.257,13.26,1111122 
DISL,ioos:station:DISL:CATA:1,2014-12-04T08:00:00Z,30.3085,-88.1395,2.22,11.78,1111122 
DISL,ioos:station:DISL:CATA:1,2014-12-04T08:30:00Z,30.3085,-88.1395,2.183,11.83,1111122 
DISL,ioos:station:DISL:CATA:1,2014-12-04T09:00:00Z,30.3085,-88.1395,2.147,11.96,1111122 
DISL,ioos:station:DISL:CATA:1,2014-12-04T09:30:00Z,30.3085,-88.1395,2.12,11.9,1111122 
DISL,ioos:station:DISL:CATA:1,2014-12-04T10:00:00Z,30.3085,-88.1395,2.096,12.41,1111122 
DISL,ioos:station:DISL:CATA:1,2014-12-04T10:30:00Z,30.3085,-88.1395,2.068,13.16,1111122 
DISL,ioos:station:DISL:CATA:1,2014-12-04T11:00:00Z,30.3085,-88.1395,2.041,13.49,1111122 
DISL,ioos:station:DISL:CATA:1,2014-12-04T11:30:00Z,30.3085,-88.1395,2.022,13.36,1111122 
DISL,ioos:station:DISL:CATA:1,2014-12-04T12:00:00Z,30.3085,-88.1395,2.006,13.13,1111122 
DISL,ioos:station:DISL:CATA:1,2014-12-04T12:30:00Z,30.3085,-88.1395,2.0,12.91,1111122 
DISL,ioos:station:DISL:CATA:1,2014-12-04T13:00:00Z,30.3085,-88.1395,2.004,12.7,1111122 
DISL,ioos:station:DISL:CATA:1,2014-12-04T13:30:00Z,30.3085,-88.1395,2.001,12.43,1111122 
DISL,ioos:station:DISL:CATA:1,2014-12-04T14:00:00Z,30.3085,-88.1395,2.018,11.77,1111122 
DISL,ioos:station:DISL:CATA:1,2014-12-04T14:30:00Z,30.3085,-88.1395,2.039,11.47,1111122 
DISL,ioos:station:DISL:CATA:1,2014-12-04T15:00:00Z,30.3085,-88.1395,2.059,11.15,1111122 
DISL,ioos:station:DISL:CATA:1,2014-12-04T15:30:00Z,30.3085,-88.1395,2.08,11.47,1111122 
DISL,ioos:station:DISL:CATA:1,2014-12-04T16:00:00Z,30.3085,-88.1395,2.113,11.52,1111122 
DISL,ioos:station:DISL:CATA:1,2014-12-04T16:30:00Z,30.3085,-88.1395,2.135,11.26,1111122 
DISL,ioos:station:DISL:CATA:1,2014-12-04T17:00:00Z,30.3085,-88.1395,2.155,11.05,1111122 
DISL,ioos:station:DISL:CATA:1,2014-12-04T17:30:00Z,30.3085,-88.1395,2.169,10.79,1111122 
DISL,ioos:station:DISL:CATA:1,2014-12-04T18:00:00Z,30.3085,-88.1395,2.181,11.19,1111122 
DISL,ioos:station:DISL:CATA:1,2014-12-04T18:30:00Z,30.3085,-88.1395,2.2,12.8,1111122 
DISL,ioos:station:DISL:CATA:1,2014-12-04T19:00:00Z,30.3085,-88.1395,2.218,13.53,1111122 
DISL,ioos:station:DISL:CATA:1,2014-12-04T19:30:00Z,30.3085,-88.1395,2.241,14.33,1111122 
DISL,ioos:station:DISL:CATA:1,2014-12-04T20:00:00Z,30.3085,-88.1395,2.258,14.23,1111122 
DISL,ioos:station:DISL:CATA:1,2014-12-04T20:30:00Z,30.3085,-88.1395,2.285,14.64,1111122 
DISL,ioos:station:DISL:CATA:1,2014-12-04T21:00:00Z,30.3085,-88.1395,2.306,15.45,1111122 
DISL,ioos:station:DISL:CATA:1,2014-12-04T21:30:00Z,30.3085,-88.1395,2.337,16.72,1111122 
DISL,ioos:station:DISL:CATA:1,2014-12-04T22:00:00Z,30.3085,-88.1395,2.364,17.42,1111122 
DISL,ioos:station:DISL:CATA:1,2014-12-04T22:30:00Z,30.3085,-88.1395,2.403,16.62,1111122 
DISL,ioos:station:DISL:CATA:1,2014-12-04T23:00:00Z,30.3085,-88.1395,2.426,16.76,1111122 
DISL,ioos:station:DISL:CATA:1,2014-12-04T23:30:00Z,30.3085,-88.1395,2.447,17.02,1111122 
DISL,ioos:station:DISL:CATA:1,2014-12-05T00:00:00Z,30.3085,-88.1395,2.474,16.54,1111122 
DISL,ioos:station:DISL:CATA:1,2014-12-05T00:30:00Z,30.3085,-88.1395,2.5,16.54,1111122 
DISL,ioos:station:DISL:CATA:1,2014-12-05T01:00:00Z,30.3085,-88.1395,2.519,17.15,1111122 
DISL,ioos:station:DISL:CATA:1,2014-12-05T01:30:00Z,30.3085,-88.1395,2.533,18.19,1111122 
DISL,ioos:station:DISL:CATA:1,2014-12-05T02:00:00Z,30.3085,-88.1395,2.545,18.96,1111122 
DISL,ioos:station:DISL:CATA:1,2014-12-05T02:30:00Z,30.3085,-88.1395,2.556,19.89,1111122 
DISL,ioos:station:DISL:CATA:1,2014-12-05T03:00:00Z,30.3085,-88.1395,2.555,20.9,1111122 
DISL,ioos:station:DISL:CATA:1,2014-12-05T03:30:00Z,30.3085,-88.1395,2.554,22.17,1111122 
DISL,ioos:station:DISL:CATA:1,2014-12-05T04:00:00Z,30.3085,-88.1395,2.555,22.45,1111122 
DISL,ioos:station:DISL:CATA:1,2014-12-05T04:30:00Z,30.3085,-88.1395,2.534,23.3,1111122 
DISL,ioos:station:DISL:CATA:1,2014-12-05T05:00:00Z,30.3085,-88.1395,2.515,23.77,1111122 
DISL,ioos:station:DISL:CATA:1,2014-12-05T05:30:00Z,30.3085,-88.1395,2.481,24.06,1111122 
DISL,ioos:station:DISL:CATA:1,2014-12-05T06:00:00Z,30.3085,-88.1395,2.457,24.22,1111122 
DISL,ioos:station:DISL:CATA:1,2014-12-05T06:30:00Z,30.3085,-88.1395,2.414,24.32,1111122 
DISL,ioos:station:DISL:CATA:1,2014-12-05T07:00:00Z,30.3085,-88.1395,2.378,21.5,1111122 
DISL,ioos:station:DISL:CATA:1,2014-12-05T07:30:00Z,30.3085,-88.1395,2.341,18.08,1111122 
DISL,ioos:station:DISL:CATA:1,2014-12-05T08:00:00Z,30.3085,-88.1395,2.289,17.61,1111122 
DISL,ioos:station:DISL:CATA:1,2014-12-05T08:30:00Z,30.3085,-88.1395,2.243,16.14,1111122 
DISL,ioos:station:DISL:CATA:1,2014-12-05T09:00:00Z,30.3085,-88.1395,2.2,15.57,1111122 
DISL,ioos:station:DISL:CATA:1,2014-12-05T09:30:00Z,30.3085,-88.1395,2.162,15.02,1111122 
DISL,ioos:station:DISL:CATA:1,2014-12-05T10:00:00Z,30.3085,-88.1395,2.131,15.05,1111122 
DISL,ioos:station:DISL:CATA:1,2014-12-05T10:30:00Z,30.3085,-88.1395,2.105,15.11,1111122 
DISL,ioos:station:DISL:CATA:1,2014-12-05T11:00:00Z,30.3085,-88.1395,2.092,14.8,1111122 
DISL,ioos:station:DISL:CATA:1,2014-12-05T11:30:00Z,30.3085,-88.1395,2.07,14.28,1111122 
DISL,ioos:station:DISL:CATA:1,2014-12-05T12:00:00Z,30.3085,-88.1395,2.085,14.45,1111122 
DISL,ioos:station:DISL:CATA:1,2014-12-05T12:30:00Z,30.3085,-88.1395,2.077,14.48,1111122 
DISL,ioos:station:DISL:CATA:1,2014-12-05T13:00:00Z,30.3085,-88.1395,2.074,13.89,1111122 
DISL,ioos:station:DISL:CATA:1,2014-12-05T13:30:00Z,30.3085,-88.1395,2.078,13.32,1111122 
DISL,ioos:station:DISL:CATA:1,2014-12-05T14:00:00Z,30.3085,-88.1395,2.086,13.12,1111122 
DISL,ioos:station:DISL:CATA:1,2014-12-05T14:30:00Z,30.3085,-88.1395,2.086,12.83,1111122 
DISL,ioos:station:DISL:CATA:1,2014-12-05T15:00:00Z,30.3085,-88.1395,2.089,12.73,1111122 
DISL,ioos:station:DISL:CATA:1,2014-12-05T15:30:00Z,30.3085,-88.1395,2.103,12.69,1111122 
DISL,ioos:station:DISL:CATA:1,2014-12-05T16:00:00Z,30.3085,-88.1395,2.119,13.2,1111122 
DISL,ioos:station:DISL:CATA:1,2014-12-05T16:30:00Z,30.3085,-88.1395,2.15,13.74,1111122 
DISL,ioos:station:DISL:CATA:1,2014-12-05T17:00:00Z,30.3085,-88.1395,2.187,13.88,1111122 
DISL,ioos:station:DISL:CATA:1,2014-12-05T17:30:00Z,30.3085,-88.1395,2.222,13.52,1111122 
DISL,ioos:station:DISL:CATA:1,2014-12-05T18:00:00Z,30.3085,-88.1395,2.24,13.04,1111122 
DISL,ioos:station:DISL:CATA:1,2014-12-05T18:30:00Z,30.3085,-88.1395,2.263,12.48,1111122 
DISL,ioos:station:DISL:CATA:1,2014-12-05T19:00:00Z,30.3085,-88.1395,2.285,13.43,1111122 
DISL,ioos:station:DISL:CATA:1,2014-12-05T19:30:00Z,30.3085,-88.1395,2.301,14.54,1111122 
DISL,ioos:station:DISL:CATA:1,2014-12-05T20:00:00Z,30.3085,-88.1395,2.321,15.15,1111122 
DISL,ioos:station:DISL:CATA:1,2014-12-05T20:30:00Z,30.3085,-88.1395,2.344,15.24,1111122 
DISL,ioos:station:DISL:CATA:1,2014-12-05T21:00:00Z,30.3085,-88.1395,2.381,15.28,1111122 
DISL,ioos:station:DISL:CATA:1,2014-12-05T21:30:00Z,30.3085,-88.1395,2.412,16.76,1111122 
DISL,ioos:station:DISL:CATA:1,2014-12-05T22:00:00Z,30.3085,-88.1395,2.447,16.72,1111122 
DISL,ioos:station:DISL:CATA:1,2014-12-05T22:30:00Z,30.3085,-88.1395,2.484,16.75,1111122 
DISL,ioos:station:DISL:CATA:1,2014-12-05T23:00:00Z,30.3085,-88.1395,2.509,16.97,1111122 
DISL,ioos:station:DISL:CATA:1,2014-12-05T23:30:00Z,30.3085,-88.1395,2.538,17.27,1111122 
DISL,ioos:station:DISL:CATA:1,2014-12-06T00:00:00Z,30.3085,-88.1395,2.558,17.54,1111122 
DISL,ioos:station:DISL:CATA:1,2014-12-06T00:30:00Z,30.3085,-88.1395,2.589,18.31,1111122 
DISL,ioos:station:DISL:CATA:1,2014-12-06T01:00:00Z,30.3085,-88.1395,2.611,18.8,1111122 
DISL,ioos:station:DISL:CATA:1,2014-12-06T01:30:00Z,30.3085,-88.1395,2.635,19.14,1111122 
DISL,ioos:station:DISL:CATA:1,2014-12-06T02:00:00Z,30.3085,-88.1395,2.651,19.21,1111122 
DISL,ioos:station:DISL:CATA:1,2014-12-06T02:30:00Z,30.3085,-88.1395,2.668,19.58,1111122 
DISL,ioos:station:DISL:CATA:1,2014-12-06T03:00:00Z,30.3085,-88.1395,2.668,20.48,1111122 
DISL,ioos:station:DISL:CATA:1,2014-12-06T03:30:00Z,30.3085,-88.1395,2.669,22.16,1111122 
DISL,ioos:station:DISL:CATA:1,2014-12-06T04:00:00Z,30.3085,-88.1395,2.654,22.79,1111122 
DISL,ioos:station:DISL:CATA:1,2014-12-06T04:30:00Z,30.3085,-88.1395,2.628,23.87,1111122 
DISL,ioos:station:DISL:CATA:1,2014-12-06T05:00:00Z,30.3085,-88.1395,2.613,24.09,1111122 
DISL,ioos:station:DISL:CATA:1,2014-12-06T05:30:00Z,30.3085,-88.1395,2.582,24.64,1111122 
DISL,ioos:station:DISL:CATA:1,2014-12-06T06:00:00Z,30.3085,-88.1395,2.545,24.66,1111122 
DISL,ioos:station:DISL:CATA:1,2014-12-06T06:30:00Z,30.3085,-88.1395,2.509,24.27,1111122 
DISL,ioos:station:DISL:CATA:1,2014-12-06T07:00:00Z,30.3085,-88.1395,2.46,21.2,1111122 
DISL,ioos:station:DISL:CATA:1,2014-12-06T07:30:00Z,30.3085,-88.1395,2.414,16.72,1111122 
DISL,ioos:station:DISL:CATA:1,2014-12-06T08:00:00Z,30.3085,-88.1395,2.36,17.24,1111122 
DISL,ioos:station:DISL:CATA:1,2014-12-06T08:30:00Z,30.3085,-88.1395,2.307,16.76,1111122 
DISL,ioos:station:DISL:CATA:1,2014-12-06T09:00:00Z,30.3085,-88.1395,2.255,16.82,1111122 
DISL,ioos:station:DISL:CATA:1,2014-12-06T09:30:00Z,30.3085,-88.1395,2.205,17.34,1111122 
DISL,ioos:station:DISL:CATA:1,2014-12-06T10:00:00Z,30.3085,-88.1395,2.17,18.16,1111122 
DISL,ioos:station:DISL:CATA:1,2014-12-06T10:30:00Z,30.3085,-88.1395,2.135,18.6,1111122 
DISL,ioos:station:DISL:CATA:1,2014-12-06T11:00:00Z,30.3085,-88.1395,2.098,18.51,1111122 
DISL,ioos:station:DISL:CATA:1,2014-12-06T11:30:00Z,30.3085,-88.1395,2.072,18.4,1111122 
DISL,ioos:station:DISL:CATA:1,2014-12-06T12:00:00Z,30.3085,-88.1395,2.04,18.39,1111122 
DISL,ioos:station:DISL:CATA:1,2014-12-06T12:30:00Z,30.3085,-88.1395,2.023,18.11,1111122 
DISL,ioos:station:DISL:CATA:1,2014-12-06T13:00:00Z,30.3085,-88.1395,2.018,17.81,1111122 
DISL,ioos:station:DISL:CATA:1,2014-12-06T13:30:00Z,30.3085,-88.1395,2.014,17.76,1111122 
DISL,ioos:station:DISL:CATA:1,2014-12-06T14:00:00Z,30.3085,-88.1395,2.006,17.73,1111122 